| time (UTC) | temp F | wind direction | speed MPH | gust MPH | rain 1hr in | rain 24hr in | rain mn in | humidity % | barometer mb |
| 20260504050012 | 51 | 209 | 4.0 | 9.0 | 0.00 | 0.03 | 0.00 | 48 | 1010.1 |
| 20260504044508 | 52 | 204 | 5.0 | 9.0 | 0.00 | 0.03 | 0.00 | 51 | 1010.2 |
| 20260504043005 | 52 | 206 | 7.0 | 13.0 | 0.00 | 0.03 | 0.00 | 51 | 1010.3 |
| 20260504041502 | 52 | 194 | 4.0 | 8.0 | 0.00 | 0.03 | 0.00 | 47 | 1010.4 |
| 20260504034558 | 52 | 187 | 4.0 | 7.0 | 0.00 | 0.03 | 0.03 | 43 | 1010.7 |
| 20260504033052 | 51 | 178 | 3.0 | 6.0 | 0.00 | 0.03 | 0.03 | 35 | 1010.9 |
| 20260504031549 | 50 | 194 | 2.0 | 6.0 | 0.00 | 0.03 | 0.03 | 27 | 1011.0 |
| 20260504030042 | 50 | 165 | 1.0 | 4.0 | 0.00 | 0.03 | 0.03 | 25 | 1011.2 |
| 20260504024542 | 50 | 157 | 3.0 | 6.0 | 0.00 | 0.03 | 0.03 | 27 | 1011.4 |
| 20260504023033 | 51 | 158 | 3.0 | 6.0 | 0.00 | 0.03 | 0.03 | 29 | 1011.5 |
| 20260504021529 | 50 | 155 | 3.0 | 7.0 | 0.00 | 0.03 | 0.03 | 28 | 1011.6 |
| 20260504020025 | 50 | 157 | 4.0 | 7.0 | 0.00 | 0.03 | 0.03 | 19 | 1011.6 |
| 20260504014520 | 49 | 166 | 1.0 | 5.0 | 0.00 | 0.03 | 0.03 | 19 | 1011.7 |
| 20260504013018 | 50 | 163 | 3.0 | 5.0 | 0.00 | 0.03 | 0.03 | 27 | 1011.7 |
| 20260504011511 | 50 | 162 | 3.0 | 6.0 | 0.00 | 0.03 | 0.03 | 33 | 1011.8 |
| 20260504010007 | 50 | 163 | 3.0 | 7.0 | 0.00 | 0.03 | 0.03 | 32 | 1011.7 |
| 20260504004508 | 49 | 164 | 2.0 | 5.0 | 0.00 | 0.03 | 0.03 | 28 | 1011.7 |
| 20260504003059 | 49 | 159 | 4.0 | 7.0 | 0.00 | 0.03 | 0.03 | 29 | 1011.8 |
| 20260504001554 | 49 | 162 | 4.0 | 7.0 | 0.00 | 0.03 | 0.03 | 23 | 1011.9 |
| 20260504000119 | 49 | 163 | 2.0 | 5.0 | 0.00 | 0.03 | 0.03 | 19 | 1012.1 |
| 20260503234552 | 49 | 158 | 3.0 | 6.0 | 0.00 | 0.03 | 0.03 | 21 | 1012.2 |
| 20260503233041 | 48 | 161 | 3.0 | 6.0 | 0.00 | 0.03 | 0.03 | 8 | 1012.1 |
| 20260503231537 | 47 | 156 | 4.0 | 8.0 | 0.00 | 0.03 | 0.03 | 1 | 1012.0 |
| 20260503230032 | 47 | 161 | 4.0 | 8.0 | 0.00 | 0.03 | 0.03 | 1 | 1012.3 |
| 20260503224529 | 47 | 154 | 4.0 | 8.0 | 0.00 | 0.03 | 0.03 | 1 | 1012.2 |
| 20260503223025 | 46 | 160 | 4.0 | 7.0 | 0.00 | 0.03 | 0.03 | 1 | 1012.5 |
| 20260503221519 | 45 | 166 | 5.0 | 8.0 | 0.00 | 0.03 | 0.03 | 1 | 1012.5 |
| 20260503220015 | 45 | 167 | 3.0 | 7.0 | 0.02 | 0.03 | 0.03 | 1 | 1013.0 |
| 20260503214510 | 44 | 158 | 3.0 | 6.0 | 0.02 | 0.03 | 0.03 | 1 | 1013.2 |
| 20260503213006 | 44 | 156 | 4.0 | 6.0 | 0.03 | 0.03 | 0.03 | 1 | 1013.6 |
| 20260503211501 | 44 | 159 | 2.0 | 5.0 | 0.03 | 0.03 | 0.03 | 1 | 1013.9 |
| 20260503210057 | 45 | 194 | 0.0 | 7.0 | 0.01 | 0.01 | 0.01 | 1 | 1014.5 |
| 20260503204553 | 47 | 213 | 5.0 | 13.0 | 0.01 | 0.01 | 0.01 | 1 | 1015.1 |
| 20260503203105 | 49 | 216 | 11.0 | 21.0 | 0.00 | 0.00 | 0.00 | 33 | 1015.5 |
| 20260503201547 | 52 | 360 | 14.0 | 26.0 | 0.00 | 0.00 | 0.00 | 59 | 1015.3 |
| 20260503200046 | 56 | 306 | 12.0 | 22.0 | 0.00 | 0.00 | 0.00 | 49 | 1014.9 |
| 20260503194553 | 57 | 220 | 10.0 | 14.0 | 0.00 | 0.00 | 0.00 | 45 | 1014.7 |
| 20260503193050 | 58 | 223 | 11.0 | 18.0 | 0.00 | 0.00 | 0.00 | 45 | 1014.8 |
| 20260503191544 | 58 | 255 | 10.0 | 18.0 | 0.00 | 0.00 | 0.00 | 43 | 1014.8 |
| 20260503190045 | 58 | 247 | 9.0 | 14.0 | 0.00 | 0.00 | 0.00 | 44 | 1014.8 |
| 20260503184541 | 58 | 360 | 8.0 | 16.0 | 0.00 | 0.00 | 0.00 | 43 | 1014.9 |
| 20260503183040 | 58 | 213 | 14.0 | 22.0 | 0.00 | 0.00 | 0.00 | 42 | 1015.2 |
| 20260503181539 | 59 | 248 | 10.0 | 16.0 | 0.00 | 0.00 | 0.00 | 43 | 1015.4 |
| 20260503180036 | 58 | 212 | 7.0 | 19.0 | 0.00 | 0.00 | 0.00 | 44 | 1015.6 |
| 20260503174534 | 58 | 217 | 11.0 | 20.0 | 0.00 | 0.00 | 0.00 | 45 | 1015.8 |
| 20260503173047 | 58 | 238 | 12.0 | 24.0 | 0.00 | 0.00 | 0.00 | 44 | 1016.1 |
| 20260503171535 | 58 | 218 | 11.0 | 19.0 | 0.00 | 0.00 | 0.00 | 43 | 1016.3 |
| 20260503081513 | 38 | 212 | 2.0 | 5.0 | 0.00 | 0.00 | 0.00 | 45 | 1017.6 |
| 20260503071605 | 37 | 237 | 0.0 | 1.0 | 0.00 | 0.00 | 0.00 | 38 | 1017.7 |
| 20260503070104 | 37 | 237 | 1.0 | 4.0 | 0.00 | 0.00 | 0.00 | 35 | 1017.8 |